Time,TemperatureF,DewpointF,PressureIn,WindDirection,WindDirectionDegrees,WindSpeedMPH,WindSpeedGustMPH,Humidity,HourlyPrecipIn,Conditions,Clouds,dailyrainin,SoftwareType,DateUTC
2013-02-01 00:00:00,55.5,34.5,30.13,NNW,346,0.0,0.0,45,0.00,,,0.00,Wunderground v.1.15,2013-02-01 08:00:00,
2013-02-01 00:10:00,55.2,34.8,30.13,NW,318,0.0,3.0,46,0.00,,,0.00,Wunderground v.1.15,2013-02-01 08:10:00,
2013-02-01 00:15:00,55.2,34.8,30.13,ENE,62,0.0,3.0,46,0.00,,,0.00,Wunderground v.1.15,2013-02-01 08:15:00,
2013-02-01 00:25:00,55.1,35.2,30.13,ESE,119,0.0,1.0,47,0.00,,,0.00,Wunderground v.1.15,2013-02-01 08:25:00,
2013-02-01 00:30:00,55.1,35.2,30.13,ENE,67,0.0,0.0,47,0.00,,,0.00,Wunderground v.1.15,2013-02-01 08:30:00,
2013-02-01 00:40:00,54.9,35.6,30.14,North,355,0.0,0.0,48,0.00,,,0.00,Wunderground v.1.15,2013-02-01 08:40:00,
2013-02-01 00:45:00,54.9,35.6,30.14,West,275,0.0,0.0,48,0.00,,,0.00,Wunderground v.1.15,2013-02-01 08:45:00,
2013-02-01 00:50:00,55.0,35.7,30.14,ENE,70,0.0,0.0,48,0.00,,,0.00,Wunderground v.1.15,2013-02-01 08:50:00,
2013-02-01 00:55:00,55.0,35.7,30.13,East,86,0.0,0.0,48,0.00,,,0.00,Wunderground v.1.15,2013-02-01 08:55:00,
2013-02-01 01:00:00,55.1,35.7,30.13,East,101,0.0,0.0,48,0.00,,,0.00,Wunderground v.1.15,2013-02-01 09:00:00,
2013-02-01 01:10:00,55.1,36.3,30.13,East,80,0.0,0.0,49,0.00,,,0.00,Wunderground v.1.15,2013-02-01 09:10:00,
2013-02-01 01:20:00,55.0,35.7,30.13,NNE,30,0.0,0.0,48,0.00,,,0.00,Wunderground v.1.15,2013-02-01 09:20:00,
2013-02-01 01:25:00,54.8,35.5,30.13,NNE,26,0.0,0.0,48,0.00,,,0.00,Wunderground v.1.15,2013-02-01 09:25:00,
2013-02-01 01:30:00,54.6,35.3,30.14,ENE,62,0.0,0.0,48,0.00,,,0.00,Wunderground v.1.15,2013-02-01 09:30:00,
2013-02-01 01:35:00,55.0,35.1,30.14,NNE,18,0.0,0.0,47,0.00,,,0.00,Wunderground v.1.15,2013-02-01 09:35:00,
2013-02-01 01:45:00,55.0,35.1,30.13,North,355,1.0,1.0,47,0.00,,,0.00,Wunderground v.1.15,2013-02-01 09:45:00,
2013-02-01 01:50:00,55.2,35.3,30.13,North,354,1.0,1.0,47,0.00,,,0.00,Wunderground v.1.15,2013-02-01 09:50:00,
2013-02-01 01:55:00,55.2,35.8,30.13,NW,314,1.0,1.0,48,0.00,,,0.00,Wunderground v.1.15,2013-02-01 09:55:00,
2013-02-01 02:00:00,55.1,36.3,30.13,NNW,342,1.0,1.0,49,0.00,,,0.00,Wunderground v.1.15,2013-02-01 10:00:00,
2013-02-01 02:10:00,55.0,35.7,30.13,North,11,0.0,0.0,48,0.00,,,0.00,Wunderground v.1.15,2013-02-01 10:10:00,
2013-02-01 02:20:00,54.8,35.5,30.13,North,352,0.0,0.0,48,0.00,,,0.00,Wunderground v.1.15,2013-02-01 10:20:00,
2013-02-01 02:25:00,54.9,35.0,30.13,SE,125,0.0,0.0,47,0.00,,,0.00,Wunderground v.1.15,2013-02-01 10:25:00,
2013-02-01 02:30:00,54.9,35.0,30.13,North,352,0.0,0.0,47,0.00,,,0.00,Wunderground v.1.15,2013-02-01 10:30:00,
2013-02-01 02:35:00,55.1,35.2,30.13,West,262,1.0,1.0,47,0.00,,,0.00,Wunderground v.1.15,2013-02-01 10:35:00,
2013-02-01 02:40:00,55.0,35.7,30.13,ENE,70,0.0,1.0,48,0.00,,,0.00,Wunderground v.1.15,2013-02-01 10:40:00,
2013-02-01 02:45:00,55.0,35.1,30.13,North,360,0.0,1.0,47,0.00,,,0.00,Wunderground v.1.15,2013-02-01 10:45:00,
2013-02-01 02:55:00,55.3,35.9,30.13,South,187,0.0,1.0,48,0.00,,,0.00,Wunderground v.1.15,2013-02-01 10:55:00,
2013-02-01 03:05:00,55.5,35.6,30.13,SE,129,0.0,0.0,47,0.00,,,0.00,Wunderground v.1.15,2013-02-01 11:05:00,
2013-02-01 03:10:00,55.6,35.7,30.13,WNW,295,0.0,1.0,47,0.00,,,0.00,Wunderground v.1.15,2013-02-01 11:10:00,
2013-02-01 03:15:00,55.5,36.1,30.13,NNW,329,0.0,1.0,48,0.00,,,0.00,Wunderground v.1.15,2013-02-01 11:15:00,
2013-02-01 03:20:00,55.3,35.9,30.13,NW,319,0.0,1.0,48,0.00,,,0.00,Wunderground v.1.15,2013-02-01 11:20:00,
2013-02-01 03:30:00,54.7,35.9,30.13,NNW,340,0.0,0.0,49,0.00,,,0.00,Wunderground v.1.15,2013-02-01 11:30:00,
2013-02-01 03:35:00,54.8,36.5,30.13,WNW,289,0.0,0.0,50,0.00,,,0.00,Wunderground v.1.15,2013-02-01 11:35:00,
2013-02-01 03:45:00,54.7,36.4,30.13,SE,135,0.0,0.0,50,0.00,,,0.00,Wunderground v.1.15,2013-02-01 11:45:00,
2013-02-01 03:50:00,54.9,36.1,30.13,NW,324,0.0,2.0,49,0.00,,,0.00,Wunderground v.1.15,2013-02-01 11:50:00,
2013-02-01 03:55:00,55.1,36.8,30.13,NE,49,1.0,3.0,50,0.00,,,0.00,Wunderground v.1.15,2013-02-01 11:55:00,
2013-02-01 04:00:00,55.1,36.8,30.13,WNW,298,1.0,1.0,50,0.00,,,0.00,Wunderground v.1.15,2013-02-01 12:00:00,
2013-02-01 04:10:00,54.8,37.0,30.13,NNW,347,0.0,0.0,51,0.00,,,0.00,Wunderground v.1.15,2013-02-01 12:10:00,
2013-02-01 04:15:00,54.8,37.0,30.12,NNW,340,0.0,2.0,51,0.00,,,0.00,Wunderground v.1.15,2013-02-01 12:15:00,
2013-02-01 04:20:00,54.7,36.9,30.12,NW,313,0.0,0.0,51,0.00,,,0.00,Wunderground v.1.15,2013-02-01 12:20:00,
2013-02-01 04:30:00,55.0,36.7,30.12,NW,307,1.0,1.0,50,0.00,,,0.00,Wunderground v.1.15,2013-02-01 12:30:00,
2013-02-01 04:35:00,55.1,36.8,30.12,ENE,68,1.0,1.0,50,0.00,,,0.00,Wunderground v.1.15,2013-02-01 12:35:00,
2013-02-01 04:50:00,55.0,36.7,30.12,North,10,0.0,0.0,50,0.00,,,0.00,Wunderground v.1.15,2013-02-01 12:50:00,
2013-02-01 04:55:00,55.0,36.2,30.12,NNE,26,1.0,1.0,49,0.00,,,0.00,Wunderground v.1.15,2013-02-01 12:55:00,
2013-02-01 05:00:00,55.0,36.2,30.12,NNW,329,1.0,1.0,49,0.00,,,0.00,Wunderground v.1.15,2013-02-01 13:00:00,
2013-02-01 05:10:00,55.1,36.3,30.12,NNW,340,1.0,1.0,49,0.00,,,0.00,Wunderground v.1.15,2013-02-01 13:10:00,
2013-02-01 05:20:00,55.2,35.8,30.12,NNW,338,1.0,2.0,48,0.00,,,0.00,Wunderground v.1.15,2013-02-01 13:20:00,
2013-02-01 05:30:00,54.8,35.5,30.12,NE,56,0.0,0.0,48,0.00,,,0.00,Wunderground v.1.15,2013-02-01 13:30:00,
2013-02-01 05:35:00,54.6,35.3,30.12,NW,305,0.0,0.0,48,0.00,,,0.00,Wunderground v.1.15,2013-02-01 13:35:00,
2013-02-01 05:40:00,54.3,36.0,30.12,NW,313,0.0,0.0,50,0.00,,,0.00,Wunderground v.1.15,2013-02-01 13:40:00,
2013-02-01 05:45:00,54.0,35.3,30.12,NNE,29,0.0,0.0,49,0.00,,,0.00,Wunderground v.1.15,2013-02-01 13:45:00,
2013-02-01 05:50:00,53.8,35.6,30.12,NNE,29,0.0,0.0,50,0.00,,,0.00,Wunderground v.1.15,2013-02-01 13:50:00,
2013-02-01 06:00:00,53.7,35.5,30.12,NW,321,0.0,5.0,50,0.00,,,0.00,Wunderground v.1.15,2013-02-01 14:00:00,
2013-02-01 06:10:00,53.9,34.6,30.11,WNW,293,1.0,1.0,48,0.00,,,0.00,Wunderground v.1.15,2013-02-01 14:10:00,
2013-02-01 06:15:00,54.4,35.1,30.11,NNW,333,1.0,2.0,48,0.00,,,0.00,Wunderground v.1.15,2013-02-01 14:15:00,
2013-02-01 06:20:00,54.3,35.0,30.11,NW,313,1.0,1.0,48,0.00,,,0.00,Wunderground v.1.15,2013-02-01 14:20:00,
2013-02-01 06:25:00,54.1,34.8,30.11,North,349,1.0,1.0,48,0.00,,,0.00,Wunderground v.1.15,2013-02-01 14:25:00,
2013-02-01 06:35:00,53.8,34.0,30.11,NNE,19,0.0,0.0,47,0.00,,,0.00,Wunderground v.1.15,2013-02-01 14:35:00,
2013-02-01 06:40:00,53.7,34.5,30.11,North,357,0.0,0.0,48,0.00,,,0.00,Wunderground v.1.15,2013-02-01 14:40:00,
2013-02-01 06:45:00,53.4,34.2,30.11,NNW,344,0.0,0.0,48,0.00,,,0.00,Wunderground v.1.15,2013-02-01 14:45:00,
2013-02-01 06:50:00,53.2,33.5,30.11,North,350,0.0,0.0,47,0.00,,,0.00,Wunderground v.1.15,2013-02-01 14:50:00,
2013-02-01 06:55:00,53.4,33.1,30.11,ENE,61,0.0,0.0,46,0.00,,,0.00,Wunderground v.1.15,2013-02-01 14:55:00,
2013-02-01 07:05:00,53.9,32.5,30.12,North,1,0.0,0.0,44,0.00,,,0.00,Wunderground v.1.15,2013-02-01 15:05:00,
2013-02-01 07:10:00,53.9,32.5,30.12,NNW,333,1.0,1.0,44,0.00,,,0.00,Wunderground v.1.15,2013-02-01 15:10:00,
2013-02-01 07:15:00,54.0,32.0,30.12,NNW,335,1.0,1.0,43,0.00,,,0.00,Wunderground v.1.15,2013-02-01 15:15:00,
2013-02-01 07:20:00,53.9,31.9,30.12,NNW,331,0.0,0.0,43,0.00,,,0.00,Wunderground v.1.15,2013-02-01 15:20:00,
2013-02-01 07:25:00,53.8,31.8,30.12,North,4,0.0,0.0,43,0.00,,,0.00,Wunderground v.1.15,2013-02-01 15:25:00,
2013-02-01 07:30:00,54.1,30.9,30.13,ENE,72,0.0,0.0,41,0.00,,,0.00,Wunderground v.1.15,2013-02-01 15:30:00,
2013-02-01 07:35:00,54.7,31.4,30.13,North,353,1.0,1.0,41,0.00,,,0.00,Wunderground v.1.15,2013-02-01 15:35:00,
2013-02-01 07:40:00,54.6,31.9,30.13,NNW,338,1.0,1.0,42,0.00,,,0.00,Wunderground v.1.15,2013-02-01 15:40:00,
2013-02-01 07:50:00,54.6,31.9,30.13,North,9,0.0,0.0,42,0.00,,,0.00,Wunderground v.1.15,2013-02-01 15:50:00,
2013-02-01 07:55:00,54.7,32.0,30.13,NNE,25,0.0,0.0,42,0.00,,,0.00,Wunderground v.1.15,2013-02-01 15:55:00,
2013-02-01 08:00:00,54.8,32.1,30.13,North,354,0.0,0.0,42,0.00,,,0.00,Wunderground v.1.15,2013-02-01 16:00:00,
2013-02-01 08:10:00,55.6,32.8,30.13,North,360,0.0,0.0,42,0.00,,,0.00,Wunderground v.1.15,2013-02-01 16:10:00,
2013-02-01 08:15:00,55.8,33.0,30.13,NE,42,0.0,0.0,42,0.00,,,0.00,Wunderground v.1.15,2013-02-01 16:15:00,
2013-02-01 08:20:00,56.3,34.1,30.14,East,94,0.0,0.0,43,0.00,,,0.00,Wunderground v.1.15,2013-02-01 16:20:00,
2013-02-01 08:25:00,56.5,34.8,30.14,NNE,20,0.0,0.0,44,0.00,,,0.00,Wunderground v.1.15,2013-02-01 16:25:00,
2013-02-01 08:30:00,56.7,36.1,30.14,ESE,103,0.0,0.0,46,0.00,,,0.00,Wunderground v.1.15,2013-02-01 16:30:00,
2013-02-01 08:35:00,56.9,36.3,30.14,ESE,105,0.0,0.0,46,0.00,,,0.00,Wunderground v.1.15,2013-02-01 16:35:00,
2013-02-01 08:40:00,57.3,36.7,30.15,NNE,22,0.0,0.0,46,0.00,,,0.00,Wunderground v.1.15,2013-02-01 16:40:00,
2013-02-01 08:45:00,58.4,39.3,30.15,East,94,1.0,1.0,49,0.00,,,0.00,Wunderground v.1.15,2013-02-01 16:45:00,
2013-02-01 08:55:00,60.1,40.3,30.14,East,93,1.0,3.0,48,0.00,,,0.00,Wunderground v.1.15,2013-02-01 16:55:00,
2013-02-01 09:00:00,61.2,41.3,30.14,East,82,2.0,2.0,48,0.00,,,0.00,Wunderground v.1.15,2013-02-01 17:00:00,
2013-02-01 09:10:00,62.4,41.9,30.14,East,88,2.0,2.0,47,0.00,,,0.00,Wunderground v.1.15,2013-02-01 17:10:00,
2013-02-01 09:15:00,62.4,41.3,30.14,ESE,111,2.0,3.0,46,0.00,,,0.00,Wunderground v.1.15,2013-02-01 17:15:00,
2013-02-01 09:20:00,62.9,42.9,30.14,East,96,2.0,2.0,48,0.00,,,0.00,Wunderground v.1.15,2013-02-01 17:20:00,
2013-02-01 09:30:00,63.4,43.4,30.14,ENE,63,3.0,3.0,48,0.00,,,0.00,Wunderground v.1.15,2013-02-01 17:30:00,
2013-02-01 09:35:00,64.2,43.5,30.14,ESE,108,2.0,3.0,47,0.00,,,0.00,Wunderground v.1.15,2013-02-01 17:35:00,
2013-02-01 09:45:00,66.0,46.8,30.14,SE,131,1.0,2.0,50,0.00,,,0.00,Wunderground v.1.15,2013-02-01 17:45:00,
2013-02-01 09:50:00,65.9,45.1,30.14,SE,142,1.0,1.0,47,0.00,,,0.00,Wunderground v.1.15,2013-02-01 17:50:00,
2013-02-01 09:55:00,66.6,44.6,30.14,SSE,152,1.0,1.0,45,0.00,,,0.00,Wunderground v.1.15,2013-02-01 17:55:00,
2013-02-01 10:05:00,67.2,40.0,30.14,WNW,287,0.0,1.0,37,0.00,,,0.00,Wunderground v.1.15,2013-02-01 18:05:00,
2013-02-01 10:10:00,66.1,40.4,30.13,WNW,287,1.0,1.0,39,0.00,,,0.00,Wunderground v.1.15,2013-02-01 18:10:00,
2013-02-01 10:15:00,65.4,40.4,30.13,West,276,1.0,1.0,40,0.00,,,0.00,Wunderground v.1.15,2013-02-01 18:15:00,
2013-02-01 10:20:00,65.6,41.3,30.13,West,266,1.0,1.0,41,0.00,,,0.00,Wunderground v.1.15,2013-02-01 18:20:00,
2013-02-01 10:30:00,67.5,41.0,30.13,West,280,0.0,1.0,38,0.00,,,0.00,Wunderground v.1.15,2013-02-01 18:30:00,
2013-02-01 10:35:00,67.2,41.4,30.13,WSW,243,0.0,1.0,39,0.00,,,0.00,Wunderground v.1.15,2013-02-01 18:35:00,
2013-02-01 10:45:00,68.2,42.3,30.13,WSW,257,1.0,1.0,39,0.00,,,0.00,Wunderground v.1.15,2013-02-01 18:45:00,
2013-02-01 10:50:00,68.9,42.2,30.13,South,180,0.0,1.0,38,0.00,,,0.00,Wunderground v.1.15,2013-02-01 18:50:00,
2013-02-01 10:55:00,68.1,42.9,30.13,SW,235,1.0,1.0,40,0.00,,,0.00,Wunderground v.1.15,2013-02-01 18:55:00,
2013-02-01 11:00:00,67.9,43.3,30.13,SW,236,0.0,0.0,41,0.00,,,0.00,Wunderground v.1.15,2013-02-01 19:00:00,
2013-02-01 11:10:00,68.4,43.1,30.13,West,264,0.0,1.0,40,0.00,,,0.00,Wunderground v.1.15,2013-02-01 19:10:00,
2013-02-01 11:20:00,67.5,43.6,30.13,West,263,1.0,1.0,42,0.00,,,0.00,Wunderground v.1.15,2013-02-01 19:20:00,
2013-02-01 11:25:00,67.9,44.0,30.13,West,265,0.0,1.0,42,0.00,,,0.00,Wunderground v.1.15,2013-02-01 19:25:00,
2013-02-01 11:30:00,67.9,42.7,30.12,West,276,0.0,0.0,40,0.00,,,0.00,Wunderground v.1.15,2013-02-01 19:30:00,
2013-02-01 11:35:00,67.9,42.0,30.12,WSW,257,0.0,1.0,39,0.00,,,0.00,Wunderground v.1.15,2013-02-01 19:35:00,
2013-02-01 11:40:00,68.8,43.5,30.11,WSW,248,0.0,0.0,40,0.00,,,0.00,Wunderground v.1.15,2013-02-01 19:40:00,
2013-02-01 11:50:00,69.4,44.0,30.11,WSW,248,0.0,0.0,40,0.00,,,0.00,Wunderground v.1.15,2013-02-01 19:50:00,
2013-02-01 11:55:00,68.8,44.1,30.11,SW,236,1.0,1.0,41,0.00,,,0.00,Wunderground v.1.15,2013-02-01 19:55:00,
2013-02-01 12:00:00,68.9,46.1,30.11,East,83,1.0,1.0,44,0.00,,,0.00,Wunderground v.1.15,2013-02-01 20:00:00,
2013-02-01 12:10:00,68.5,44.5,30.11,West,260,1.0,1.0,42,0.00,,,0.00,Wunderground v.1.15,2013-02-01 20:10:00,
2013-02-01 12:15:00,68.3,43.7,30.10,West,276,1.0,1.0,41,0.00,,,0.00,Wunderground v.1.15,2013-02-01 20:15:00,
2013-02-01 12:20:00,66.9,43.7,30.10,NNW,347,1.0,1.0,43,0.00,,,0.00,Wunderground v.1.15,2013-02-01 20:20:00,
2013-02-01 12:25:00,67.2,45.1,30.10,WNW,289,1.0,1.0,45,0.00,,,0.00,Wunderground v.1.15,2013-02-01 20:25:00,
2013-02-01 12:35:00,67.8,45.1,30.10,SW,228,1.0,1.0,44,0.00,,,0.00,Wunderground v.1.15,2013-02-01 20:35:00,
2013-02-01 12:40:00,67.6,44.3,30.10,West,259,1.0,1.0,43,0.00,,,0.00,Wunderground v.1.15,2013-02-01 20:40:00,
2013-02-01 12:45:00,67.8,44.5,30.10,WSW,253,1.0,1.0,43,0.00,,,0.00,Wunderground v.1.15,2013-02-01 20:45:00,
2013-02-01 12:50:00,67.7,45.0,30.10,WSW,243,1.0,1.0,44,0.00,,,0.00,Wunderground v.1.15,2013-02-01 20:50:00,
2013-02-01 12:55:00,67.8,45.1,30.10,West,274,0.0,1.0,44,0.00,,,0.00,Wunderground v.1.15,2013-02-01 20:55:00,
2013-02-01 13:00:00,67.6,44.9,30.10,West,269,1.0,1.0,44,0.00,,,0.00,Wunderground v.1.15,2013-02-01 21:00:00,
2013-02-01 13:10:00,67.5,44.2,30.10,West,269,1.0,1.0,43,0.00,,,0.00,Wunderground v.1.15,2013-02-01 21:10:00,
2013-02-01 13:20:00,67.5,43.6,30.09,WSW,250,1.0,1.0,42,0.00,,,0.00,Wunderground v.1.15,2013-02-01 21:20:00,
2013-02-01 13:25:00,67.8,44.5,30.09,West,271,1.0,1.0,43,0.00,,,0.00,Wunderground v.1.15,2013-02-01 21:25:00,
2013-02-01 13:30:00,67.6,43.7,30.09,SW,215,1.0,1.0,42,0.00,,,0.00,Wunderground v.1.15,2013-02-01 21:30:00,
2013-02-01 13:35:00,67.1,47.8,30.09,ESE,105,2.0,3.0,50,0.00,,,0.00,Wunderground v.1.15,2013-02-01 21:35:00,
2013-02-01 13:40:00,67.3,48.0,30.09,ENE,76,2.0,2.0,50,0.00,,,0.00,Wunderground v.1.15,2013-02-01 21:40:00,
2013-02-01 13:45:00,68.2,46.6,30.09,WSW,247,1.0,2.0,46,0.00,,,0.00,Wunderground v.1.15,2013-02-01 21:45:00,
2013-02-01 13:50:00,68.0,46.4,30.09,West,269,1.0,1.0,46,0.00,,,0.00,Wunderground v.1.15,2013-02-01 21:50:00,
2013-02-01 14:00:00,66.2,47.5,30.09,SW,228,1.0,1.0,51,0.00,,,0.00,Wunderground v.1.15,2013-02-01 22:00:00,
2013-02-01 14:10:00,66.2,45.9,30.10,WNW,293,1.0,1.0,48,0.00,,,0.00,Wunderground v.1.15,2013-02-01 22:10:00,
2013-02-01 14:15:00,64.5,44.4,30.10,West,277,1.0,2.0,48,0.00,,,0.00,Wunderground v.1.15,2013-02-01 22:15:00,
2013-02-01 14:20:00,64.2,45.7,30.09,NW,312,1.0,1.0,51,0.00,,,0.00,Wunderground v.1.15,2013-02-01 22:20:00,
2013-02-01 14:25:00,65.4,46.3,30.09,West,278,1.0,1.0,50,0.00,,,0.00,Wunderground v.1.15,2013-02-01 22:25:00,
2013-02-01 14:30:00,65.4,46.8,30.09,SE,133,1.0,3.0,51,0.00,,,0.00,Wunderground v.1.15,2013-02-01 22:30:00,
2013-02-01 14:40:00,64.9,47.4,30.09,ESE,117,2.0,3.0,53,0.00,,,0.00,Wunderground v.1.15,2013-02-01 22:40:00,
2013-02-01 14:45:00,64.9,46.8,30.09,SW,219,2.0,3.0,52,0.00,,,0.00,Wunderground v.1.15,2013-02-01 22:45:00,
2013-02-01 14:50:00,65.4,46.8,30.09,SSW,212,1.0,1.0,51,0.00,,,0.00,Wunderground v.1.15,2013-02-01 22:50:00,
2013-02-01 14:55:00,64.7,46.7,30.09,WNW,295,1.0,2.0,52,0.00,,,0.00,Wunderground v.1.15,2013-02-01 22:55:00,
2013-02-01 15:00:00,63.5,45.0,30.09,West,277,1.0,2.0,51,0.00,,,0.00,Wunderground v.1.15,2013-02-01 23:00:00,
2013-02-01 15:10:00,61.0,45.2,30.09,West,273,3.0,3.0,56,0.00,,,0.00,Wunderground v.1.15,2013-02-01 23:10:00,
2013-02-01 15:20:00,61.2,47.2,30.10,West,259,0.0,2.0,60,0.00,,,0.00,Wunderground v.1.15,2013-02-01 23:20:00,
2013-02-01 15:30:00,54.3,44.7,30.11,West,280,2.0,2.0,70,0.00,,,0.00,Wunderground v.1.15,2013-02-01 23:30:00,
2013-02-01 15:35:00,51.0,44.7,30.11,WNW,290,3.0,3.0,79,0.00,,,0.00,Wunderground v.1.15,2013-02-01 23:35:00,
2013-02-01 15:40:00,49.5,44.2,30.11,WNW,295,3.0,3.0,82,0.00,,,0.00,Wunderground v.1.15,2013-02-01 23:40:00,
2013-02-01 15:45:00,48.9,44.3,30.11,WNW,293,2.0,3.0,84,0.00,,,0.00,Wunderground v.1.15,2013-02-01 23:45:00,
2013-02-01 15:50:00,48.3,44.6,30.11,WNW,283,2.0,2.0,87,0.00,,,0.00,Wunderground v.1.15,2013-02-01 23:50:00,
2013-02-01 15:55:00,48.3,44.9,30.11,WNW,302,2.0,2.0,88,0.00,,,0.00,Wunderground v.1.15,2013-02-01 23:55:00,
2013-02-01 16:05:00,50.0,46.3,30.10,ENE,75,2.0,5.0,87,0.00,,,0.00,Wunderground v.1.15,2013-02-02 00:05:00,
2013-02-01 16:10:00,51.0,46.6,30.10,ESE,103,3.0,3.0,85,0.00,,,0.00,Wunderground v.1.15,2013-02-02 00:10:00,
2013-02-01 16:15:00,52.6,47.6,30.10,ENE,72,3.0,3.0,83,0.00,,,0.00,Wunderground v.1.15,2013-02-02 00:15:00,
2013-02-01 16:20:00,53.9,47.5,30.10,ESE,109,3.0,3.0,79,0.00,,,0.00,Wunderground v.1.15,2013-02-02 00:20:00,
2013-02-01 16:25:00,54.2,47.8,30.10,ENE,68,2.0,3.0,79,0.00,,,0.00,Wunderground v.1.15,2013-02-02 00:25:00,
2013-02-01 16:30:00,55.6,48.2,30.10,ENE,68,1.0,1.0,76,0.00,,,0.00,Wunderground v.1.15,2013-02-02 00:30:00,
2013-02-01 16:35:00,56.2,48.4,30.10,ENE,68,0.0,1.0,75,0.00,,,0.00,Wunderground v.1.15,2013-02-02 00:35:00,
2013-02-01 16:45:00,55.8,48.0,30.10,East,86,1.0,1.0,75,0.00,,,0.00,Wunderground v.1.15,2013-02-02 00:45:00,
2013-02-01 16:50:00,56.0,46.7,30.10,East,86,1.0,1.0,71,0.00,,,0.00,Wunderground v.1.15,2013-02-02 00:50:00,
2013-02-01 17:00:00,55.8,48.3,30.10,ENE,77,1.0,2.0,76,0.00,,,0.00,Wunderground v.1.15,2013-02-02 01:00:00,
2013-02-01 17:10:00,56.5,47.6,30.10,NE,51,0.0,0.0,72,0.00,,,0.00,Wunderground v.1.15,2013-02-02 01:10:00,
2013-02-01 17:15:00,56.5,47.9,30.10,East,83,0.0,0.0,73,0.00,,,0.00,Wunderground v.1.15,2013-02-02 01:15:00,
2013-02-01 17:20:00,56.4,45.6,30.10,North,354,0.0,0.0,67,0.00,,,0.00,Wunderground v.1.15,2013-02-02 01:20:00,
2013-02-01 17:25:00,56.9,45.3,30.10,ESE,105,0.0,0.0,65,0.00,,,0.00,Wunderground v.1.15,2013-02-02 01:25:00,
2013-02-01 17:30:00,57.5,45.4,30.10,ENE,62,0.0,1.0,64,0.00,,,0.00,Wunderground v.1.15,2013-02-02 01:30:00,
2013-02-01 17:40:00,57.9,44.5,30.11,NNW,345,0.0,0.0,61,0.00,,,0.00,Wunderground v.1.15,2013-02-02 01:40:00,
2013-02-01 17:45:00,58.0,43.3,30.11,ENE,76,0.0,0.0,58,0.00,,,0.00,Wunderground v.1.15,2013-02-02 01:45:00,
2013-02-01 17:50:00,58.5,42.8,30.11,NNE,29,0.0,0.0,56,0.00,,,0.00,Wunderground v.1.15,2013-02-02 01:50:00,
2013-02-01 17:55:00,58.6,42.9,30.12,ENE,76,0.0,2.0,56,0.00,,,0.00,Wunderground v.1.15,2013-02-02 01:55:00,
2013-02-01 18:00:00,57.8,42.7,30.12,ENE,77,0.0,0.0,57,0.00,,,0.00,Wunderground v.1.15,2013-02-02 02:00:00,
2013-02-01 18:15:00,57.7,41.2,30.13,NNE,25,0.0,0.0,54,0.00,,,0.00,Wunderground v.1.15,2013-02-02 02:15:00,
2013-02-01 18:20:00,57.6,40.6,30.13,WSW,258,0.0,0.0,53,0.00,,,0.00,Wunderground v.1.15,2013-02-02 02:20:00,
2013-02-01 18:25:00,57.6,41.1,30.13,NW,305,1.0,1.0,54,0.00,,,0.00,Wunderground v.1.15,2013-02-02 02:25:00,
2013-02-01 18:30:00,57.3,41.3,30.13,NW,309,1.0,2.0,55,0.00,,,0.00,Wunderground v.1.15,2013-02-02 02:30:00,
2013-02-01 18:35:00,56.5,41.9,30.14,WNW,284,1.0,2.0,58,0.00,,,0.00,Wunderground v.1.15,2013-02-02 02:35:00,
2013-02-01 18:45:00,55.7,40.7,30.14,WNW,302,1.0,2.0,57,0.00,,,0.00,Wunderground v.1.15,2013-02-02 02:45:00,
2013-02-01 18:50:00,55.5,40.5,30.14,WNW,288,2.0,2.0,57,0.00,,,0.00,Wunderground v.1.15,2013-02-02 02:50:00,
2013-02-01 18:55:00,55.1,40.6,30.15,WNW,300,2.0,2.0,58,0.00,,,0.00,Wunderground v.1.15,2013-02-02 02:55:00,
2013-02-01 19:00:00,54.9,41.7,30.15,WNW,299,1.0,1.0,61,0.00,,,0.00,Wunderground v.1.15,2013-02-02 03:00:00,
2013-02-01 19:10:00,53.9,42.0,30.15,WNW,299,0.0,0.0,64,0.00,,,0.00,Wunderground v.1.15,2013-02-02 03:10:00,
2013-02-01 19:20:00,53.0,41.5,30.15,NNE,16,0.0,0.0,65,0.00,,,0.00,Wunderground v.1.15,2013-02-02 03:20:00,
2013-02-01 19:25:00,53.0,40.7,30.15,North,8,0.0,1.0,63,0.00,,,0.00,Wunderground v.1.15,2013-02-02 03:25:00,
2013-02-01 19:30:00,53.2,39.7,30.15,NE,51,0.0,0.0,60,0.00,,,0.00,Wunderground v.1.15,2013-02-02 03:30:00,
2013-02-01 19:35:00,54.0,38.6,30.15,East,86,1.0,2.0,56,0.00,,,0.00,Wunderground v.1.15,2013-02-02 03:35:00,
2013-02-01 19:40:00,54.6,39.2,30.16,NNE,16,1.0,1.0,56,0.00,,,0.00,Wunderground v.1.15,2013-02-02 03:40:00,
2013-02-01 19:50:00,54.9,39.5,30.16,NE,34,0.0,0.0,56,0.00,,,0.00,Wunderground v.1.15,2013-02-02 03:50:00,
2013-02-01 19:55:00,54.5,38.2,30.16,ENE,77,0.0,0.0,54,0.00,,,0.00,Wunderground v.1.15,2013-02-02 03:55:00,
2013-02-01 20:00:00,54.8,37.0,30.15,WNW,289,0.0,0.0,51,0.00,,,0.00,Wunderground v.1.15,2013-02-02 04:00:00,
2013-02-01 20:10:00,54.7,36.9,30.16,West,281,0.0,0.0,51,0.00,,,0.00,Wunderground v.1.15,2013-02-02 04:10:00,
2013-02-01 20:15:00,54.6,36.8,30.15,NW,308,0.0,0.0,51,0.00,,,0.00,Wunderground v.1.15,2013-02-02 04:15:00,
2013-02-01 20:20:00,54.6,36.3,30.15,NNE,32,0.0,0.0,50,0.00,,,0.00,Wunderground v.1.15,2013-02-02 04:20:00,
2013-02-01 20:30:00,54.2,35.4,30.15,North,354,0.0,0.0,49,0.00,,,0.00,Wunderground v.1.15,2013-02-02 04:30:00,
2013-02-01 20:35:00,54.3,35.0,30.16,East,101,0.0,0.0,48,0.00,,,0.00,Wunderground v.1.15,2013-02-02 04:35:00,
2013-02-01 20:40:00,54.2,34.9,30.15,NNW,335,0.0,0.0,48,0.00,,,0.00,Wunderground v.1.15,2013-02-02 04:40:00,
2013-02-01 20:45:00,54.3,35.5,30.16,NNW,334,0.0,0.0,49,0.00,,,0.00,Wunderground v.1.15,2013-02-02 04:45:00,
2013-02-01 20:50:00,54.6,33.1,30.16,NNW,342,0.0,1.0,44,0.00,,,0.00,Wunderground v.1.15,2013-02-02 04:50:00,
2013-02-01 20:55:00,54.5,32.4,30.16,NE,46,0.0,1.0,43,0.00,,,0.00,Wunderground v.1.15,2013-02-02 04:55:00,
2013-02-01 21:00:00,54.7,33.2,30.15,NE,38,0.0,0.0,44,0.00,,,0.00,Wunderground v.1.15,2013-02-02 05:00:00,
2013-02-01 21:10:00,55.3,28.8,30.16,NNE,29,0.0,0.0,36,0.00,,,0.00,Wunderground v.1.15,2013-02-02 05:10:00,
2013-02-01 21:15:00,55.9,28.6,30.15,NNW,335,1.0,1.0,35,0.00,,,0.00,Wunderground v.1.15,2013-02-02 05:15:00,
2013-02-01 21:20:00,56.1,27.4,30.16,NNE,23,1.0,1.0,33,0.00,,,0.00,Wunderground v.1.15,2013-02-02 05:20:00,
2013-02-01 21:25:00,56.4,27.6,30.16,North,359,1.0,1.0,33,0.00,,,0.00,Wunderground v.1.15,2013-02-02 05:25:00,
2013-02-01 21:30:00,56.6,27.8,30.16,NNE,14,1.0,1.0,33,0.00,,,0.00,Wunderground v.1.15,2013-02-02 05:30:00,
2013-02-01 21:40:00,57.0,26.6,30.17,NNW,330,0.0,2.0,31,0.00,,,0.00,Wunderground v.1.15,2013-02-02 05:40:00,
2013-02-01 21:45:00,56.8,28.0,30.17,NNW,329,1.0,2.0,33,0.00,,,0.00,Wunderground v.1.15,2013-02-02 05:45:00,
2013-02-01 21:50:00,56.1,28.8,30.17,NNW,333,1.0,1.0,35,0.00,,,0.00,Wunderground v.1.15,2013-02-02 05:50:00,
2013-02-01 21:55:00,55.5,28.3,30.17,NNE,29,0.0,1.0,35,0.00,,,0.00,Wunderground v.1.15,2013-02-02 05:55:00,
2013-02-01 22:00:00,55.3,28.1,30.17,NNW,335,0.0,0.0,35,0.00,,,0.00,Wunderground v.1.15,2013-02-02 06:00:00,
2013-02-01 22:10:00,55.2,28.0,30.18,WSW,248,0.0,1.0,35,0.00,,,0.00,Wunderground v.1.15,2013-02-02 06:10:00,
2013-02-01 22:15:00,53.7,35.5,30.18,WNW,294,1.0,3.0,50,0.00,,,0.00,Wunderground v.1.15,2013-02-02 06:15:00,
2013-02-01 22:25:00,48.9,36.4,30.17,NNW,330,2.0,4.0,62,0.00,,,0.00,Wunderground v.1.15,2013-02-02 06:25:00,
2013-02-01 22:30:00,49.4,30.0,30.18,WNW,297,1.0,1.0,47,0.00,,,0.00,Wunderground v.1.15,2013-02-02 06:30:00,
2013-02-01 22:35:00,50.2,31.8,30.18,NNE,27,0.0,1.0,49,0.00,,,0.00,Wunderground v.1.15,2013-02-02 06:35:00,
2013-02-01 22:40:00,51.1,30.5,30.17,NNE,27,0.0,0.0,45,0.00,,,0.00,Wunderground v.1.15,2013-02-02 06:40:00,
2013-02-01 22:50:00,52.2,29.2,30.18,NE,41,0.0,0.0,41,0.00,,,0.00,Wunderground v.1.15,2013-02-02 06:50:00,
2013-02-01 22:55:00,53.1,29.4,30.18,ENE,74,0.0,0.0,40,0.00,,,0.00,Wunderground v.1.15,2013-02-02 06:55:00,
2013-02-01 23:00:00,54.2,29.1,30.18,NNE,29,0.0,1.0,38,0.00,,,0.00,Wunderground v.1.15,2013-02-02 07:00:00,
2013-02-01 23:10:00,55.6,27.6,30.18,NE,44,1.0,1.0,34,0.00,,,0.00,Wunderground v.1.15,2013-02-02 07:10:00,
2013-02-01 23:15:00,56.0,26.5,30.18,NW,307,1.0,2.0,32,0.00,,,0.00,Wunderground v.1.15,2013-02-02 07:15:00,
2013-02-01 23:20:00,56.3,26.0,30.18,NNW,342,0.0,0.0,31,0.00,,,0.00,Wunderground v.1.15,2013-02-02 07:20:00,
2013-02-01 23:25:00,56.6,26.3,30.18,East,101,1.0,1.0,31,0.00,,,0.00,Wunderground v.1.15,2013-02-02 07:25:00,
2013-02-01 23:30:00,56.5,28.4,30.17,ESE,106,1.0,1.0,34,0.00,,,0.00,Wunderground v.1.15,2013-02-02 07:30:00,
2013-02-01 23:40:00,56.1,29.5,30.17,East,84,0.0,0.0,36,0.00,,,0.00,Wunderground v.1.15,2013-02-02 07:40:00,
2013-02-01 23:45:00,55.3,29.4,30.17,NNE,13,0.0,0.0,37,0.00,,,0.00,Wunderground v.1.15,2013-02-02 07:45:00,
2013-02-01 23:50:00,54.7,32.0,30.17,East,96,1.0,1.0,42,0.00,,,0.00,Wunderground v.1.15,2013-02-02 07:50:00,
2013-02-01 23:55:00,53.5,31.5,30.17,East,94,1.0,1.0,43,0.00,,,0.00,Wunderground v.1.15,2013-02-02 07:55:00,